TimeCST,TemperatureF,Dew PointF,Humidity,Sea Level PressureIn,VisibilityMPH,Wind Direction,Wind SpeedMPH,Gust SpeedMPH,PrecipitationIn,Events,Conditions,WindDirDegrees,DateUTC
12:10 AM,55.4,55.4,100,30.00,1.5,Calm,Calm,-,N/A,,Mostly Cloudy,0,2013-11-18 06:10:00
12:30 AM,55.4,53.6,94,30.00,0.2,Calm,Calm,-,N/A,Fog,Fog,0,2013-11-18 06:30:00
12:50 AM,53.6,53.6,100,30.00,0.2,Calm,Calm,-,N/A,Fog,Fog,0,2013-11-18 06:50:00
1:10 AM,53.6,50.0,88,30.01,2.5,West,3.5,-,N/A,,Clear,280,2013-11-18 07:10:00
1:30 AM,50.0,50.0,100,30.01,1.2,North,3.5,-,N/A,,Mostly Cloudy,360,2013-11-18 07:30:00
1:50 AM,50.0,50.0,100,30.01,0.5,Calm,Calm,-,N/A,Fog,Fog,0,2013-11-18 07:50:00
2:10 AM,51.8,50.0,94,30.02,3.0,Calm,Calm,-,N/A,,Partly Cloudy,0,2013-11-18 08:10:00
2:30 AM,50.0,48.2,94,30.03,5.0,Calm,Calm,-,N/A,,Clear,0,2013-11-18 08:30:00
2:50 AM,48.2,46.4,93,30.03,2.5,Calm,Calm,-,N/A,,Clear,0,2013-11-18 08:50:00
3:10 AM,46.4,44.6,93,30.04,1.0,WNW,4.6,-,N/A,,Clear,290,2013-11-18 09:10:00
3:30 AM,46.4,44.6,93,30.04,1.5,Calm,Calm,-,N/A,,Clear,0,2013-11-18 09:30:00
3:50 AM,46.4,46.4,100,30.04,7.0,NW,3.5,-,N/A,,Clear,320,2013-11-18 09:50:00
4:10 AM,44.6,44.6,100,30.04,3.0,WNW,3.5,-,N/A,,Clear,300,2013-11-18 10:10:00
4:30 AM,44.6,42.8,93,30.04,10.0,WNW,4.6,-,N/A,,Clear,290,2013-11-18 10:30:00
4:50 AM,44.6,42.8,93,30.05,10.0,Calm,Calm,-,N/A,,Clear,0,2013-11-18 10:50:00
5:10 AM,44.6,44.6,100,30.05,10.0,Calm,Calm,-,N/A,,Clear,0,2013-11-18 11:10:00
5:30 AM,44.6,41.0,87,30.05,8.0,Calm,Calm,-,N/A,,Clear,0,2013-11-18 11:30:00
5:50 AM,42.8,41.0,93,30.06,6.0,Calm,Calm,-,N/A,,Clear,0,2013-11-18 11:50:00
6:10 AM,41.0,41.0,100,30.07,4.0,Calm,Calm,-,N/A,,Clear,0,2013-11-18 12:10:00
6:30 AM,41.0,41.0,100,30.08,10.0,Calm,Calm,-,N/A,,Clear,0,2013-11-18 12:30:00
6:50 AM,41.0,41.0,100,30.09,7.0,NNW,3.5,-,N/A,,Clear,340,2013-11-18 12:50:00
7:10 AM,42.8,41.0,93,30.10,4.0,Calm,Calm,-,N/A,,Clear,0,2013-11-18 13:10:00
7:30 AM,44.6,42.8,93,30.11,10.0,NNW,3.5,-,0.01,,Clear,340,2013-11-18 13:30:00
7:50 AM,46.4,44.6,93,30.12,10.0,NNW,4.6,-,0.01,,Clear,340,2013-11-18 13:50:00
8:10 AM,50.0,41.0,71,30.12,10.0,North,4.6,-,N/A,,Clear,350,2013-11-18 14:10:00
8:30 AM,50.0,41.0,71,30.13,10.0,North,4.6,-,N/A,,Clear,360,2013-11-18 14:30:00
8:50 AM,53.6,41.0,62,30.13,10.0,NNW,4.6,-,N/A,,Clear,330,2013-11-18 14:50:00
9:10 AM,55.4,41.0,58,30.15,10.0,North,6.9,-,N/A,,Clear,350,2013-11-18 15:10:00
9:30 AM,57.2,39.2,51,30.16,10.0,North,8.1,-,N/A,,Clear,10,2013-11-18 15:30:00
9:50 AM,57.2,39.2,51,30.17,10.0,North,6.9,-,N/A,,Clear,350,2013-11-18 15:50:00
10:10 AM,59.0,39.2,48,30.17,10.0,North,8.1,-,N/A,,Clear,360,2013-11-18 16:10:00
10:30 AM,60.8,39.2,45,30.17,10.0,North,5.8,-,N/A,,Clear,10,2013-11-18 16:30:00
10:50 AM,60.8,39.2,45,30.17,10.0,NNW,10.4,-,N/A,,Clear,340,2013-11-18 16:50:00
11:10 AM,62.6,39.2,42,30.17,10.0,North,8.1,-,N/A,,Clear,350,2013-11-18 17:10:00
11:30 AM,62.6,39.2,42,30.16,10.0,NNE,6.9,-,N/A,,Clear,20,2013-11-18 17:30:00
11:50 AM,62.6,37.4,39,30.15,10.0,NNE,11.5,-,N/A,,Clear,20,2013-11-18 17:50:00
12:10 PM,59.0,37.4,45,30.16,10.0,North,6.9,-,N/A,,Clear,350,2013-11-18 18:10:00
12:30 PM,62.6,37.4,39,30.15,10.0,North,8.1,-,N/A,,Clear,350,2013-11-18 18:30:00
12:50 PM,62.6,37.4,39,30.15,10.0,North,8.1,-,N/A,,Clear,350,2013-11-18 18:50:00
1:10 PM,64.4,37.4,37,30.15,10.0,NNW,5.8,-,N/A,,Clear,330,2013-11-18 19:10:00
1:30 PM,64.4,37.4,37,30.15,10.0,NW,9.2,18.4,N/A,,Clear,320,2013-11-18 19:30:00
1:50 PM,64.4,35.6,34,30.15,10.0,NW,8.1,-,N/A,,Clear,320,2013-11-18 19:50:00
2:10 PM,62.6,32.0,32,30.15,10.0,NNW,10.4,19.6,N/A,,Clear,340,2013-11-18 20:10:00
2:30 PM,62.6,35.6,37,30.15,10.0,NW,8.1,-,N/A,,Clear,320,2013-11-18 20:30:00
2:50 PM,62.6,33.8,34,30.15,10.0,North,11.5,-,N/A,,Clear,350,2013-11-18 20:50:00
3:10 PM,60.8,33.8,36,30.16,10.0,NNW,8.1,-,N/A,,Clear,330,2013-11-18 21:10:00
3:30 PM,60.8,32.0,34,30.16,10.0,NNW,8.1,-,N/A,,Clear,340,2013-11-18 21:30:00
3:50 PM,60.8,32.0,34,30.16,10.0,NNW,9.2,-,N/A,,Clear,340,2013-11-18 21:50:00
4:10 PM,59.0,32.0,36,30.17,10.0,North,6.9,-,N/A,,Clear,350,2013-11-18 22:10:00
4:30 PM,59.0,32.0,36,30.17,10.0,North,6.9,-,N/A,,Clear,350,2013-11-18 22:30:00
4:50 PM,57.2,33.8,41,30.18,10.0,NNW,5.8,-,N/A,,Clear,340,2013-11-18 22:50:00
5:10 PM,55.4,33.8,44,30.18,10.0,NNW,4.6,-,N/A,,Clear,330,2013-11-18 23:10:00
5:30 PM,53.6,33.8,47,30.18,10.0,NNW,4.6,-,N/A,,Clear,330,2013-11-18 23:30:00
5:50 PM,53.6,32.0,44,30.19,10.0,NNW,4.6,-,N/A,,Clear,330,2013-11-18 23:50:00
6:10 PM,51.8,33.8,50,30.20,10.0,NNW,4.6,-,N/A,,Clear,330,2013-11-19 00:10:00
6:30 PM,50.0,33.8,54,30.20,10.0,NNW,5.8,-,N/A,,Clear,330,2013-11-19 00:30:00
6:50 PM,50.0,32.0,50,30.21,10.0,NNW,5.8,-,N/A,,Clear,340,2013-11-19 00:50:00
7:10 PM,50.0,32.0,50,30.21,10.0,North,5.8,-,N/A,,Clear,350,2013-11-19 01:10:00
7:30 PM,50.0,32.0,50,30.21,10.0,North,5.8,-,N/A,,Clear,350,2013-11-19 01:30:00
7:50 PM,48.2,32.0,54,30.21,10.0,North,6.9,-,N/A,,Clear,350,2013-11-19 01:50:00
8:10 PM,48.2,32.0,54,30.21,10.0,NNW,6.9,-,N/A,,Clear,340,2013-11-19 02:10:00
8:30 PM,48.2,32.0,54,30.22,10.0,North,6.9,-,N/A,,Clear,360,2013-11-19 02:30:00
8:50 PM,48.2,32.0,54,30.23,10.0,North,6.9,-,N/A,,Clear,350,2013-11-19 02:50:00
9:10 PM,48.2,32.0,54,30.24,10.0,North,5.8,-,N/A,,Clear,350,2013-11-19 03:10:00
9:30 PM,48.2,30.2,50,30.24,10.0,North,5.8,-,N/A,,Clear,350,2013-11-19 03:30:00
9:50 PM,46.4,30.2,53,30.24,10.0,North,6.9,-,N/A,,Clear,360,2013-11-19 03:50:00
10:10 PM,46.4,28.4,50,30.24,10.0,North,6.9,-,N/A,,Clear,360,2013-11-19 04:10:00
10:30 PM,46.4,28.4,50,30.24,10.0,North,6.9,-,N/A,,Clear,360,2013-11-19 04:30:00
10:50 PM,46.4,28.4,50,30.24,10.0,North,5.8,-,N/A,,Clear,360,2013-11-19 04:50:00
11:10 PM,44.6,28.4,53,30.24,10.0,North,5.8,-,N/A,,Clear,360,2013-11-19 05:10:00
11:30 PM,44.6,28.4,53,30.24,10.0,North,8.1,-,N/A,,Clear,360,2013-11-19 05:30:00
11:50 PM,44.6,28.4,53,30.24,10.0,North,5.8,-,N/A,,Clear,360,2013-11-19 05:50:00